Weather in Zonal'naya stantsiya

Russia / Tomsk District     56°25′36″N   85°01′22″E
temp.,
°C
wind,
m/s
gust,
m/s
humid.,
%
clouds,
%
prec.,
mm/h
press.,
hPa
HPBL,
m
17 april, sat
sat1701:00−2nw399795 2.0 1017267
04:00−3n478990 0.1 1019672
07:00−6n378099 0.1 1022562
10:00−5n35635 0.0 1024753
13:00−2nnw23534 0.0 10241049
16:000wnw12504 0.0 10241146
19:000sw23600 0.0 1024915
22:00−4ssw278415 0.0 1023148
18 april, sun
sun1801:00−4s41078100 0.0 1021333
04:00−3ssw41279100 0.0 1018592
07:00−2ssw61279100 0.0 1015729
10:00+2sw61371100 0.0 10121175
13:00+2sw51193100 0.7 1011893
16:00+2ssw41197100 1.8 1008735
19:00+3ssw61285100 2.3 1005791
22:00+2s51398100 0.6 1001742
19 april, mon
mon1901:00+2sw51198100 1.7 997899
04:00−6nnw81490100 2.0 10031079
07:00−9nw81484100 2.4 1011938
10:00−9nw7106393 0.1 10171113
13:00−5wnw6852100 0.1 10201702
16:00−5wnw6849100 0.0 10212092
19:00−5wnw5756100 0.1 10231832
22:00−7wnw4867100 0.1 10241254
20 april, tue
tue2001:00−7wnw47705 0.1 1024936
04:00−9wnw487712 0.0 1024726
07:00−9wnw488198 0.0 1025689
10:00−6wnw4662100 0.0 10251083
13:00−3wnw4549100 0.0 10251497
16:00−2wnw4543100 0.1 10241902
19:00−2nw3449100 0.1 10241457
22:00−5wnw117464 0.1 102416
21 april, wed
wed2101:00−6sw118148 0.1 102414
04:00−7s118541 0.0 102321
07:00−6s14845 0.0 1024120
10:00−2s234746 0.0 10241400
13:00+1sse2339100 0.0 10251912
16:00+2se2236100 0.0 10261995
19:00+1ene124312 0.0 1029583
22:00−2ene386912 0.0 1032165